Time,TemperatureF,DewpointF,PressureIn,WindDirection,WindDirectionDegrees,WindSpeedMPH,WindSpeedGustMPH,Humidity,HourlyPrecipIn,Conditions,Clouds,dailyrainin,SolarRadiationWatts/m^2,SoftwareType,DateUTC
2013-02-27 00:00:00,41.4,39.5,29.81,SE,128,5.0,8.0,93,0.13,,,0.20,0,Wunderground v.1.15,2013-02-27 05:00:00,
2013-02-27 00:01:00,41.4,39.5,29.81,ENE,73,11.0,11.0,93,0.20,,,0.01,0,Wunderground v.1.15,2013-02-27 05:01:00,
2013-02-27 00:03:00,41.5,39.6,29.80,ENE,74,11.0,11.0,93,0.25,,,0.02,0,Wunderground v.1.15,2013-02-27 05:03:00,
2013-02-27 00:08:00,41.5,39.6,29.79,NE,52,7.0,16.0,93,0.32,,,0.04,0,Wunderground v.1.15,2013-02-27 05:08:00,
2013-02-27 00:14:00,41.5,39.6,29.80,East,80,8.0,10.0,93,0.21,,,0.08,0,Wunderground v.1.15,2013-02-27 05:14:00,
2013-02-27 00:20:00,41.6,39.7,29.81,ENE,65,7.0,7.0,93,0.34,,,0.11,0,Wunderground v.1.15,2013-02-27 05:20:00,
2013-02-27 00:25:00,41.7,39.8,29.80,East,92,0.0,11.0,93,0.16,,,0.12,0,Wunderground v.1.15,2013-02-27 05:25:00,
2013-02-27 00:30:00,41.8,39.9,29.80,East,93,8.0,8.0,93,0.18,,,0.13,0,Wunderground v.1.15,2013-02-27 05:30:00,
2013-02-27 00:36:00,41.9,40.3,29.79,ESE,103,18.0,18.0,94,0.13,,,0.15,0,Wunderground v.1.15,2013-02-27 05:36:00,
2013-02-27 00:41:00,42.0,40.4,29.79,East,90,3.0,9.0,94,0.12,,,0.16,0,Wunderground v.1.15,2013-02-27 05:41:00,
2013-02-27 00:46:00,42.2,40.6,29.78,ESE,108,9.0,9.0,94,0.11,,,0.16,0,Wunderground v.1.15,2013-02-27 05:46:00,
2013-02-27 00:52:00,42.2,40.6,29.78,NE,42,9.0,9.0,94,0.10,,,0.17,0,Wunderground v.1.15,2013-02-27 05:52:00,
2013-02-27 00:58:00,42.3,40.7,29.77,East,94,2.0,9.0,94,0.08,,,0.18,0,Wunderground v.1.15,2013-02-27 05:58:00,
2013-02-27 01:03:00,42.3,40.7,29.77,East,88,13.0,13.0,94,0.10,,,0.19,0,Wunderground v.1.15,2013-02-27 06:03:00,
2013-02-27 01:09:00,42.3,40.7,29.77,NE,53,8.0,16.0,94,0.12,,,0.20,0,Wunderground v.1.15,2013-02-27 06:09:00,
2013-02-27 01:15:00,42.3,40.7,29.77,SE,136,7.0,14.0,94,0.09,,,0.21,0,Wunderground v.1.15,2013-02-27 06:15:00,
2013-02-27 01:20:00,42.4,40.8,29.76,East,86,6.0,7.0,94,0.07,,,0.21,0,Wunderground v.1.15,2013-02-27 06:20:00,
2013-02-27 01:26:00,42.5,40.9,29.76,SE,144,5.0,15.0,94,0.12,,,0.23,0,Wunderground v.1.15,2013-02-27 06:26:00,
2013-02-27 01:31:00,42.5,40.9,29.76,ENE,65,7.0,13.0,94,0.11,,,0.23,0,Wunderground v.1.15,2013-02-27 06:31:00,
2013-02-27 01:36:00,42.5,40.9,29.75,North,5,14.0,14.0,94,0.08,,,0.24,0,Wunderground v.1.15,2013-02-27 06:36:00,
2013-02-27 01:42:00,42.5,40.9,29.74,ESE,109,9.0,10.0,94,0.09,,,0.25,0,Wunderground v.1.15,2013-02-27 06:42:00,
2013-02-27 01:48:00,42.6,41.0,29.73,ENE,61,8.0,14.0,94,0.07,,,0.25,0,Wunderground v.1.15,2013-02-27 06:48:00,
2013-02-27 01:53:00,42.6,41.0,29.72,ESE,120,9.0,11.0,94,0.06,,,0.26,0,Wunderground v.1.15,2013-02-27 06:53:00,
2013-02-27 01:59:00,42.6,41.0,29.71,ENE,76,7.0,18.0,94,0.06,,,0.26,0,Wunderground v.1.15,2013-02-27 06:59:00,
2013-02-27 02:04:00,42.7,41.1,29.70,ESE,108,8.0,16.0,94,0.06,,,0.27,0,Wunderground v.1.15,2013-02-27 07:04:00,
2013-02-27 02:09:00,42.7,41.1,29.69,East,86,13.0,24.0,94,0.06,,,0.27,0,Wunderground v.1.15,2013-02-27 07:09:00,
2013-02-27 02:14:00,42.7,41.1,29.68,ESE,111,13.0,19.0,94,0.04,,,0.27,0,Wunderground v.1.15,2013-02-27 07:14:00,
2013-02-27 02:19:00,42.7,41.1,29.68,ENE,70,17.0,21.0,94,0.00,,,0.27,0,Wunderground v.1.15,2013-02-27 07:19:00,
2013-02-27 02:24:00,42.7,41.4,29.67,East,92,3.0,24.0,95,0.00,,,0.27,0,Wunderground v.1.15,2013-02-27 07:24:00,
2013-02-27 02:29:00,42.7,41.4,29.67,East,93,5.0,24.0,95,0.00,,,0.27,0,Wunderground v.1.15,2013-02-27 07:29:00,
2013-02-27 02:34:00,42.8,41.5,29.66,East,86,9.0,11.0,95,0.00,,,0.28,0,Wunderground v.1.15,2013-02-27 07:34:00,
2013-02-27 02:39:00,42.9,41.6,29.66,ESE,107,8.0,15.0,95,0.00,,,0.28,0,Wunderground v.1.15,2013-02-27 07:39:00,
2013-02-27 02:44:00,43.0,41.7,29.65,SE,136,7.0,21.0,95,0.00,,,0.28,0,Wunderground v.1.15,2013-02-27 07:44:00,
2013-02-27 02:49:00,43.1,41.8,29.65,SE,134,5.0,21.0,95,0.00,,,0.29,0,Wunderground v.1.15,2013-02-27 07:49:00,
2013-02-27 02:54:00,43.2,41.9,29.65,NNE,26,7.0,13.0,95,0.00,,,0.29,0,Wunderground v.1.15,2013-02-27 07:54:00,
2013-02-27 03:00:00,43.2,41.9,29.64,East,91,0.0,6.0,95,0.00,,,0.29,0,Wunderground v.1.15,2013-02-27 08:00:00,
2013-02-27 03:05:00,43.4,42.1,29.64,NE,42,6.0,16.0,95,0.00,,,0.29,0,Wunderground v.1.15,2013-02-27 08:05:00,
2013-02-27 03:10:00,43.4,42.1,29.63,SE,128,6.0,15.0,95,0.00,,,0.29,0,Wunderground v.1.15,2013-02-27 08:10:00,
2013-02-27 03:15:00,43.6,42.3,29.63,ENE,70,10.0,15.0,95,0.00,,,0.29,0,Wunderground v.1.15,2013-02-27 08:15:00,
2013-02-27 03:20:00,43.7,42.4,29.62,East,86,2.0,6.0,95,0.00,,,0.29,0,Wunderground v.1.15,2013-02-27 08:20:00,
2013-02-27 03:25:00,43.8,42.5,29.61,SE,126,3.0,17.0,95,0.00,,,0.29,0,Wunderground v.1.15,2013-02-27 08:25:00,
2013-02-27 03:30:00,43.8,42.5,29.61,East,90,3.0,9.0,95,0.00,,,0.29,0,Wunderground v.1.15,2013-02-27 08:30:00,
2013-02-27 03:35:00,43.8,42.5,29.60,ESE,105,3.0,18.0,95,0.00,,,0.29,0,Wunderground v.1.15,2013-02-27 08:35:00,
2013-02-27 03:40:00,43.8,42.5,29.60,East,101,5.0,6.0,95,0.00,,,0.29,0,Wunderground v.1.15,2013-02-27 08:40:00,
2013-02-27 03:45:00,43.8,42.5,29.59,SE,130,3.0,16.0,95,0.00,,,0.30,0,Wunderground v.1.15,2013-02-27 08:45:00,
2013-02-27 03:50:00,44.0,42.7,29.59,SE,130,4.0,9.0,95,0.00,,,0.30,0,Wunderground v.1.15,2013-02-27 08:50:00,
2013-02-27 03:55:00,44.0,42.7,29.59,SE,124,7.0,16.0,95,0.00,,,0.30,0,Wunderground v.1.15,2013-02-27 08:55:00,
2013-02-27 04:00:00,44.1,42.8,29.58,ESE,119,5.0,14.0,95,0.04,,,0.31,0,Wunderground v.1.15,2013-02-27 09:00:00,
2013-02-27 04:05:00,44.2,42.9,29.58,ESE,119,9.0,19.0,95,0.04,,,0.31,0,Wunderground v.1.15,2013-02-27 09:05:00,
2013-02-27 04:10:00,44.2,42.9,29.58,ESE,119,7.0,9.0,95,0.04,,,0.31,0,Wunderground v.1.15,2013-02-27 09:10:00,
2013-02-27 04:15:00,44.2,42.9,29.58,East,94,13.0,15.0,95,0.00,,,0.31,0,Wunderground v.1.15,2013-02-27 09:15:00,
2013-02-27 04:20:00,44.2,42.9,29.58,ESE,105,4.0,9.0,95,0.00,,,0.31,0,Wunderground v.1.15,2013-02-27 09:20:00,
2013-02-27 04:25:00,44.2,42.9,29.58,NE,43,10.0,23.0,95,0.00,,,0.31,0,Wunderground v.1.15,2013-02-27 09:25:00,
2013-02-27 04:30:00,44.2,42.9,29.58,SE,124,6.0,13.0,95,0.00,,,0.31,0,Wunderground v.1.15,2013-02-27 09:30:00,
2013-02-27 04:35:00,44.2,42.9,29.57,East,79,5.0,13.0,95,0.00,,,0.31,0,Wunderground v.1.15,2013-02-27 09:35:00,
2013-02-27 04:40:00,44.3,43.0,29.58,ESE,110,8.0,12.0,95,0.00,,,0.31,0,Wunderground v.1.15,2013-02-27 09:40:00,
2013-02-27 04:45:00,44.4,43.1,29.57,East,96,3.0,21.0,95,0.00,,,0.31,0,Wunderground v.1.15,2013-02-27 09:45:00,
2013-02-27 04:50:00,44.5,43.2,29.57,East,85,8.0,11.0,95,0.00,,,0.31,0,Wunderground v.1.15,2013-02-27 09:50:00,
2013-02-27 04:55:00,44.6,43.3,29.57,East,80,13.0,20.0,95,0.00,,,0.31,0,Wunderground v.1.15,2013-02-27 09:55:00,
2013-02-27 05:00:00,44.6,43.3,29.56,SE,126,5.0,10.0,95,0.00,,,0.31,0,Wunderground v.1.15,2013-02-27 10:00:00,
2013-02-27 05:05:00,44.5,43.2,29.56,East,96,5.0,17.0,95,0.00,,,0.31,0,Wunderground v.1.15,2013-02-27 10:05:00,
2013-02-27 05:10:00,44.3,43.0,29.55,East,86,6.0,14.0,95,0.00,,,0.32,0,Wunderground v.1.15,2013-02-27 10:10:00,
2013-02-27 05:16:00,44.3,43.0,29.55,ENE,69,3.0,18.0,95,0.13,,,0.33,0,Wunderground v.1.15,2013-02-27 10:16:00,
2013-02-27 05:21:00,44.3,43.0,29.55,East,93,5.0,6.0,95,0.11,,,0.33,0,Wunderground v.1.15,2013-02-27 10:21:00,
2013-02-27 05:26:00,44.5,43.2,29.54,ESE,115,3.0,13.0,95,0.11,,,0.34,0,Wunderground v.1.15,2013-02-27 10:26:00,
2013-02-27 05:31:00,44.8,43.5,29.54,ENE,71,2.0,10.0,95,0.06,,,0.34,0,Wunderground v.1.15,2013-02-27 10:31:00,
2013-02-27 05:36:00,44.9,43.8,29.54,ESE,119,4.0,13.0,96,0.04,,,0.35,0,Wunderground v.1.15,2013-02-27 10:36:00,
2013-02-27 05:41:00,44.9,43.6,29.54,East,86,7.0,8.0,95,0.16,,,0.36,0,Wunderground v.1.15,2013-02-27 10:41:00,
2013-02-27 05:46:00,45.0,43.7,29.54,East,92,9.0,18.0,95,0.14,,,0.37,0,Wunderground v.1.15,2013-02-27 10:46:00,
2013-02-27 05:51:00,45.1,43.8,29.54,East,84,2.0,13.0,95,0.07,,,0.37,0,Wunderground v.1.15,2013-02-27 10:51:00,
2013-02-27 05:56:00,45.1,43.8,29.54,East,97,2.0,13.0,95,0.04,,,0.37,0,Wunderground v.1.15,2013-02-27 10:56:00,
2013-02-27 06:01:00,45.0,43.7,29.54,ENE,72,1.0,4.0,95,0.00,,,0.37,0,Wunderground v.1.15,2013-02-27 11:01:00,
2013-02-27 06:06:00,45.0,43.7,29.54,East,82,5.0,10.0,95,0.00,,,0.38,0,Wunderground v.1.15,2013-02-27 11:06:00,
2013-02-27 06:11:00,45.0,43.7,29.54,SE,130,1.0,3.0,95,0.00,,,0.38,0,Wunderground v.1.15,2013-02-27 11:11:00,
2013-02-27 06:16:00,45.1,43.8,29.53,East,91,0.0,8.0,95,0.00,,,0.38,0,Wunderground v.1.15,2013-02-27 11:16:00,
2013-02-27 06:21:00,45.2,43.9,29.53,East,80,6.0,6.0,95,0.00,,,0.38,0,Wunderground v.1.15,2013-02-27 11:21:00,
2013-02-27 06:26:00,45.5,44.4,29.52,East,96,5.0,8.0,96,0.00,,,0.38,0,Wunderground v.1.15,2013-02-27 11:26:00,
2013-02-27 06:31:00,45.6,44.5,29.51,ENE,69,3.0,7.0,96,0.00,,,0.38,0,Wunderground v.1.15,2013-02-27 11:31:00,
2013-02-27 06:36:00,46.0,44.9,29.52,ESE,122,2.0,14.0,96,0.00,,,0.38,0,Wunderground v.1.15,2013-02-27 11:36:00,
2013-02-27 06:41:00,46.3,45.2,29.51,SE,136,0.0,4.0,96,0.00,,,0.38,0,Wunderground v.1.15,2013-02-27 11:41:00,
2013-02-27 06:46:00,46.3,45.2,29.51,ESE,115,0.0,6.0,96,0.00,,,0.38,0,Wunderground v.1.15,2013-02-27 11:46:00,
2013-02-27 06:51:00,46.3,45.2,29.51,SE,136,5.0,7.0,96,0.00,,,0.38,0,Wunderground v.1.15,2013-02-27 11:51:00,
2013-02-27 06:56:00,46.3,45.2,29.50,ESE,117,8.0,10.0,96,0.00,,,0.38,0,Wunderground v.1.15,2013-02-27 11:56:00,
2013-02-27 07:01:00,46.1,45.0,29.50,ESE,122,7.0,17.0,96,0.00,,,0.38,7,Wunderground v.1.15,2013-02-27 12:01:00,
2013-02-27 07:06:00,46.1,45.0,29.50,ESE,123,4.0,17.0,96,0.00,,,0.38,7,Wunderground v.1.15,2013-02-27 12:06:00,
2013-02-27 07:11:00,45.9,44.5,29.50,SSE,160,3.0,5.0,95,0.00,,,0.38,9,Wunderground v.1.15,2013-02-27 12:11:00,
2013-02-27 07:16:00,45.8,44.4,29.50,East,88,8.0,11.0,95,0.00,,,0.38,9,Wunderground v.1.15,2013-02-27 12:16:00,
2013-02-27 07:21:00,45.7,44.4,29.50,East,88,1.0,11.0,95,0.00,,,0.38,11,Wunderground v.1.15,2013-02-27 12:21:00,
2013-02-27 07:26:00,45.6,44.3,29.50,East,86,0.0,11.0,95,0.00,,,0.38,11,Wunderground v.1.15,2013-02-27 12:26:00,
2013-02-27 07:31:00,45.6,44.5,29.50,ESE,103,4.0,5.0,96,0.00,,,0.38,12,Wunderground v.1.15,2013-02-27 12:31:00,
2013-02-27 07:36:00,45.6,44.5,29.50,East,96,0.0,11.0,96,0.00,,,0.38,14,Wunderground v.1.15,2013-02-27 12:36:00,
2013-02-27 07:42:00,45.6,44.5,29.50,ENE,67,4.0,9.0,96,0.00,,,0.38,16,Wunderground v.1.15,2013-02-27 12:42:00,
2013-02-27 07:47:00,45.6,44.5,29.49,East,86,3.0,13.0,96,0.00,,,0.38,23,Wunderground v.1.15,2013-02-27 12:47:00,
2013-02-27 07:52:00,45.5,44.4,29.49,East,87,6.0,7.0,96,0.00,,,0.38,40,Wunderground v.1.15,2013-02-27 12:52:00,
2013-02-27 07:57:00,45.4,44.3,29.49,East,87,3.0,10.0,96,0.00,,,0.38,35,Wunderground v.1.15,2013-02-27 12:57:00,
2013-02-27 08:02:00,45.5,44.4,29.49,ENE,78,0.0,8.0,96,0.00,,,0.38,26,Wunderground v.1.15,2013-02-27 13:02:00,
2013-02-27 08:07:00,45.4,44.3,29.49,East,92,0.0,9.0,96,0.00,,,0.38,19,Wunderground v.1.15,2013-02-27 13:07:00,
2013-02-27 08:12:00,45.5,44.4,29.49,ESE,108,4.0,7.0,96,0.00,,,0.38,23,Wunderground v.1.15,2013-02-27 13:12:00,
2013-02-27 08:17:00,45.4,44.3,29.49,ESE,102,0.0,11.0,96,0.00,,,0.38,35,Wunderground v.1.15,2013-02-27 13:17:00,
2013-02-27 08:22:00,45.5,44.4,29.49,ENE,76,0.0,5.0,96,0.00,,,0.38,56,Wunderground v.1.15,2013-02-27 13:22:00,
2013-02-27 08:27:00,45.6,44.5,29.49,East,82,1.0,9.0,96,0.00,,,0.38,49,Wunderground v.1.15,2013-02-27 13:27:00,
2013-02-27 08:32:00,45.8,44.7,29.49,East,88,2.0,9.0,96,0.00,,,0.38,53,Wunderground v.1.15,2013-02-27 13:32:00,
2013-02-27 08:37:00,45.9,44.8,29.49,ENE,75,3.0,11.0,96,0.00,,,0.38,60,Wunderground v.1.15,2013-02-27 13:37:00,
2013-02-27 08:42:00,46.1,45.0,29.49,ENE,76,7.0,7.0,96,0.00,,,0.38,63,Wunderground v.1.15,2013-02-27 13:42:00,
2013-02-27 08:47:00,46.2,45.1,29.49,East,81,0.0,9.0,96,0.00,,,0.38,53,Wunderground v.1.15,2013-02-27 13:47:00,
2013-02-27 08:52:00,46.3,45.2,29.49,ENE,77,3.0,5.0,96,0.00,,,0.38,42,Wunderground v.1.15,2013-02-27 13:52:00,
2013-02-27 08:57:00,46.3,45.2,29.49,ENE,76,0.0,5.0,96,0.00,,,0.38,40,Wunderground v.1.15,2013-02-27 13:57:00,
2013-02-27 09:02:00,46.3,45.2,29.50,ENE,77,2.0,7.0,96,0.00,,,0.38,28,Wunderground v.1.15,2013-02-27 14:02:00,
2013-02-27 09:07:00,46.3,45.2,29.49,East,82,6.0,7.0,96,0.00,,,0.38,54,Wunderground v.1.15,2013-02-27 14:07:00,
2013-02-27 09:12:00,46.2,45.1,29.48,ENE,72,0.0,3.0,96,0.00,,,0.38,54,Wunderground v.1.15,2013-02-27 14:12:00,
2013-02-27 09:17:00,46.2,45.1,29.48,East,82,0.0,9.0,96,0.00,,,0.38,70,Wunderground v.1.15,2013-02-27 14:17:00,
2013-02-27 09:22:00,46.2,45.1,29.48,ENE,76,0.0,3.0,96,0.00,,,0.38,76,Wunderground v.1.15,2013-02-27 14:22:00,
2013-02-27 09:27:00,46.2,45.1,29.48,ENE,65,0.0,4.0,96,0.00,,,0.38,54,Wunderground v.1.15,2013-02-27 14:27:00,
2013-02-27 09:32:00,46.3,45.2,29.49,East,82,0.0,1.0,96,0.00,,,0.38,77,Wunderground v.1.15,2013-02-27 14:32:00,
2013-02-27 09:37:00,46.4,45.3,29.49,East,93,0.0,3.0,96,0.00,,,0.38,134,Wunderground v.1.15,2013-02-27 14:37:00,
2013-02-27 09:42:00,46.6,45.5,29.48,East,93,0.0,1.0,96,0.00,,,0.38,230,Wunderground v.1.15,2013-02-27 14:42:00,
2013-02-27 09:48:00,47.2,46.1,29.48,East,93,0.0,1.0,96,0.00,,,0.38,181,Wunderground v.1.15,2013-02-27 14:48:00,
2013-02-27 09:53:00,47.7,46.6,29.49,SE,146,4.0,4.0,96,0.00,,,0.38,120,Wunderground v.1.15,2013-02-27 14:53:00,
2013-02-27 09:58:00,47.8,46.7,29.50,SSE,165,0.0,4.0,96,0.00,,,0.38,162,Wunderground v.1.15,2013-02-27 14:58:00,
2013-02-27 10:03:00,48.1,47.0,29.49,SSW,207,1.0,4.0,96,0.00,,,0.38,193,Wunderground v.1.15,2013-02-27 15:03:00,
2013-02-27 10:08:00,48.6,47.5,29.48,SSW,207,1.0,4.0,96,0.00,,,0.38,204,Wunderground v.1.15,2013-02-27 15:08:00,
2013-02-27 10:13:00,49.1,48.0,29.49,SSW,209,0.0,1.0,96,0.00,,,0.38,200,Wunderground v.1.15,2013-02-27 15:13:00,
2013-02-27 10:18:00,49.5,48.4,29.49,SSW,209,0.0,2.0,96,0.00,,,0.38,239,Wunderground v.1.15,2013-02-27 15:18:00,
2013-02-27 10:23:00,49.8,48.7,29.48,SSW,210,2.0,4.0,96,0.00,,,0.38,299,Wunderground v.1.15,2013-02-27 15:23:00,
2013-02-27 10:28:00,50.3,49.2,29.48,SSW,210,1.0,4.0,96,0.00,,,0.38,241,Wunderground v.1.15,2013-02-27 15:28:00,
2013-02-27 10:33:00,50.5,49.4,29.48,SSW,211,1.0,3.0,96,0.00,,,0.38,241,Wunderground v.1.15,2013-02-27 15:33:00,
2013-02-27 10:38:00,50.6,49.8,29.48,WSW,238,0.0,4.0,97,0.00,,,0.38,244,Wunderground v.1.15,2013-02-27 15:38:00,
2013-02-27 10:43:00,51.0,49.9,29.47,WSW,238,1.0,2.0,96,0.00,,,0.38,304,Wunderground v.1.15,2013-02-27 15:43:00,
2013-02-27 10:48:00,51.5,50.7,29.48,WSW,238,1.0,3.0,97,0.00,,,0.38,316,Wunderground v.1.15,2013-02-27 15:48:00,
2013-02-27 10:53:00,51.9,51.1,29.48,SSW,208,0.0,5.0,97,0.00,,,0.38,313,Wunderground v.1.15,2013-02-27 15:53:00,
2013-02-27 10:58:00,52.0,51.2,29.48,SW,225,0.0,5.0,97,0.00,,,0.38,213,Wunderground v.1.15,2013-02-27 15:58:00,
2013-02-27 11:03:00,52.1,51.0,29.48,SW,231,1.0,4.0,96,0.00,,,0.38,151,Wunderground v.1.15,2013-02-27 16:03:00,
2013-02-27 11:08:00,52.0,50.9,29.48,SW,231,0.0,4.0,96,0.00,,,0.38,244,Wunderground v.1.15,2013-02-27 16:08:00,
2013-02-27 11:13:00,52.2,51.1,29.48,SW,222,1.0,4.0,96,0.00,,,0.38,160,Wunderground v.1.15,2013-02-27 16:13:00,
2013-02-27 11:18:00,52.1,51.0,29.49,SW,223,0.0,4.0,96,0.00,,,0.38,63,Wunderground v.1.15,2013-02-27 16:18:00,
2013-02-27 11:23:00,51.8,50.7,29.49,SW,224,4.0,4.0,96,0.00,,,0.38,105,Wunderground v.1.15,2013-02-27 16:23:00,
2013-02-27 11:28:00,51.1,50.0,29.49,SW,223,0.0,4.0,96,0.00,,,0.38,200,Wunderground v.1.15,2013-02-27 16:28:00,
2013-02-27 11:33:00,51.0,49.9,29.49,SW,224,0.0,5.0,96,0.00,,,0.38,339,Wunderground v.1.15,2013-02-27 16:33:00,
2013-02-27 11:38:00,51.3,50.2,29.49,WSW,239,2.0,9.0,96,0.00,,,0.38,295,Wunderground v.1.15,2013-02-27 16:38:00,
2013-02-27 11:43:00,52.7,51.9,29.49,West,262,4.0,10.0,97,0.00,,,0.38,715,Wunderground v.1.15,2013-02-27 16:43:00,
2013-02-27 11:48:00,53.2,52.4,29.48,West,275,5.0,12.0,97,0.00,,,0.38,721,Wunderground v.1.15,2013-02-27 16:48:00,
2013-02-27 11:53:00,53.3,52.2,29.48,West,276,5.0,9.0,96,0.00,,,0.38,761,Wunderground v.1.15,2013-02-27 16:53:00,
2013-02-27 11:58:00,54.2,53.1,29.48,SW,227,5.0,11.0,96,0.00,,,0.38,844,Wunderground v.1.15,2013-02-27 16:58:00,
2013-02-27 12:03:00,54.5,53.1,29.48,SSW,209,3.0,18.0,95,0.00,,,0.38,271,Wunderground v.1.15,2013-02-27 17:03:00,
2013-02-27 12:08:00,54.3,52.9,29.47,WSW,252,4.0,18.0,95,0.00,,,0.38,251,Wunderground v.1.15,2013-02-27 17:08:00,
2013-02-27 12:13:00,54.3,52.9,29.48,WNW,285,2.0,7.0,95,0.00,,,0.38,153,Wunderground v.1.15,2013-02-27 17:13:00,
2013-02-27 12:18:00,54.3,52.6,29.48,West,269,7.0,10.0,94,0.00,,,0.39,192,Wunderground v.1.15,2013-02-27 17:18:00,
2013-02-27 12:23:00,54.2,52.5,29.47,West,279,4.0,9.0,94,0.00,,,0.39,250,Wunderground v.1.15,2013-02-27 17:23:00,
2013-02-27 12:28:00,54.3,52.3,29.47,WNW,284,6.0,14.0,93,0.00,,,0.39,229,Wunderground v.1.15,2013-02-27 17:28:00,
2013-02-27 12:33:00,54.5,52.5,29.47,West,281,1.0,7.0,93,0.00,,,0.39,165,Wunderground v.1.15,2013-02-27 17:33:00,
2013-02-27 12:39:00,54.7,52.4,29.48,WNW,284,6.0,16.0,92,0.00,,,0.39,79,Wunderground v.1.15,2013-02-27 17:39:00,
2013-02-27 12:44:00,54.5,51.9,29.48,WNW,295,12.0,15.0,91,0.00,,,0.39,121,Wunderground v.1.15,2013-02-27 17:44:00,
2013-02-27 12:49:00,54.0,51.1,29.48,WNW,288,3.0,15.0,90,0.00,,,0.39,102,Wunderground v.1.15,2013-02-27 17:49:00,
2013-02-27 12:54:00,53.6,50.4,29.48,West,281,3.0,15.0,89,0.00,,,0.39,114,Wunderground v.1.15,2013-02-27 17:54:00,
2013-02-27 12:59:00,53.4,50.2,29.48,West,276,5.0,15.0,89,0.00,,,0.39,167,Wunderground v.1.15,2013-02-27 17:59:00,
2013-02-27 13:04:00,53.2,50.0,29.48,NW,317,7.0,13.0,89,0.00,,,0.39,100,Wunderground v.1.15,2013-02-27 18:04:00,
2013-02-27 13:09:00,52.8,49.3,29.49,WNW,284,5.0,13.0,88,0.00,,,0.39,146,Wunderground v.1.15,2013-02-27 18:09:00,
2013-02-27 13:14:00,52.6,48.8,29.49,WNW,290,4.0,16.0,87,0.00,,,0.39,125,Wunderground v.1.15,2013-02-27 18:14:00,
2013-02-27 13:19:00,52.4,48.6,29.49,WNW,290,3.0,16.0,87,0.00,,,0.39,135,Wunderground v.1.15,2013-02-27 18:19:00,
2013-02-27 13:24:00,52.3,48.5,29.49,NW,315,10.0,12.0,87,0.00,,,0.39,123,Wunderground v.1.15,2013-02-27 18:24:00,
2013-02-27 13:29:00,52.1,48.0,29.49,NNW,327,1.0,14.0,86,0.00,,,0.39,95,Wunderground v.1.15,2013-02-27 18:29:00,
2013-02-27 13:34:00,52.0,47.9,29.49,NNE,17,1.0,14.0,86,0.00,,,0.39,91,Wunderground v.1.15,2013-02-27 18:34:00,
2013-02-27 13:39:00,52.0,47.9,29.49,West,266,6.0,16.0,86,0.00,,,0.39,120,Wunderground v.1.15,2013-02-27 18:39:00,
2013-02-27 13:44:00,51.8,47.4,29.49,WSW,257,6.0,14.0,85,0.00,,,0.39,144,Wunderground v.1.15,2013-02-27 18:44:00,
2013-02-27 13:49:00,51.7,47.3,29.49,NW,311,2.0,14.0,85,0.00,,,0.39,183,Wunderground v.1.15,2013-02-27 18:49:00,
2013-02-27 13:54:00,51.8,47.4,29.49,NW,322,4.0,20.0,85,0.00,,,0.39,299,Wunderground v.1.15,2013-02-27 18:54:00,
2013-02-27 13:59:00,52.1,47.7,29.49,West,281,6.0,20.0,85,0.00,,,0.39,661,Wunderground v.1.15,2013-02-27 18:59:00,
2013-02-27 14:04:00,52.7,48.0,29.49,WNW,299,6.0,17.0,84,0.00,,,0.39,197,Wunderground v.1.15,2013-02-27 19:04:00,
2013-02-27 14:09:00,52.9,47.6,29.50,WNW,287,8.0,17.0,82,0.00,,,0.39,197,Wunderground v.1.15,2013-02-27 19:09:00,
2013-02-27 14:14:00,53.3,47.9,29.50,NW,316,5.0,16.0,82,0.00,,,0.39,752,Wunderground v.1.15,2013-02-27 19:14:00,
2013-02-27 14:19:00,54.2,48.2,29.50,WNW,296,5.0,22.0,80,0.00,,,0.39,729,Wunderground v.1.15,2013-02-27 19:19:00,
2013-02-27 14:24:00,54.6,47.5,29.50,NW,304,2.0,15.0,77,0.00,,,0.39,128,Wunderground v.1.15,2013-02-27 19:24:00,
2013-02-27 14:29:00,54.3,46.9,29.51,NW,318,5.0,21.0,76,0.00,,,0.39,670,Wunderground v.1.15,2013-02-27 19:29:00,
2013-02-27 14:34:00,54.0,46.6,29.51,WNW,289,7.0,12.0,76,0.00,,,0.39,541,Wunderground v.1.15,2013-02-27 19:34:00,
2013-02-27 14:39:00,54.1,46.3,29.51,NNW,338,14.0,16.0,75,0.00,,,0.39,176,Wunderground v.1.15,2013-02-27 19:39:00,
2013-02-27 14:44:00,53.8,46.1,29.50,NW,321,6.0,16.0,75,0.00,,,0.39,482,Wunderground v.1.15,2013-02-27 19:44:00,
2013-02-27 14:49:00,53.7,46.0,29.51,WNW,302,4.0,16.0,75,0.00,,,0.39,279,Wunderground v.1.15,2013-02-27 19:49:00,
2013-02-27 14:54:00,53.9,45.8,29.51,WNW,300,15.0,17.0,74,0.00,,,0.39,230,Wunderground v.1.15,2013-02-27 19:54:00,
2013-02-27 14:59:00,53.9,45.4,29.51,WNW,300,4.0,19.0,73,0.00,,,0.39,380,Wunderground v.1.15,2013-02-27 19:59:00,
2013-02-27 15:04:00,54.1,45.6,29.52,NW,317,4.0,11.0,73,0.00,,,0.39,262,Wunderground v.1.15,2013-02-27 20:04:00,
2013-02-27 15:09:00,54.4,45.6,29.52,WNW,286,10.0,17.0,72,0.00,,,0.39,102,Wunderground v.1.15,2013-02-27 20:09:00,
2013-02-27 15:14:00,54.2,45.0,29.53,NW,309,8.0,12.0,71,0.00,,,0.39,130,Wunderground v.1.15,2013-02-27 20:14:00,
2013-02-27 15:19:00,54.0,44.8,29.53,WNW,294,11.0,12.0,71,0.00,,,0.39,236,Wunderground v.1.15,2013-02-27 20:19:00,
2013-02-27 15:24:00,53.9,44.0,29.53,West,281,12.0,20.0,69,0.00,,,0.39,283,Wunderground v.1.15,2013-02-27 20:24:00,
2013-02-27 15:30:00,54.0,44.4,29.53,WNW,290,5.0,8.0,70,0.00,,,0.39,338,Wunderground v.1.15,2013-02-27 20:30:00,
2013-02-27 15:35:00,54.1,44.5,29.54,WNW,293,3.0,14.0,70,0.00,,,0.39,69,Wunderground v.1.15,2013-02-27 20:35:00,
2013-02-27 15:40:00,54.2,44.2,29.54,WSW,254,8.0,8.0,69,0.00,,,0.39,178,Wunderground v.1.15,2013-02-27 20:40:00,
2013-02-27 15:45:00,54.4,44.1,29.54,NW,316,7.0,14.0,68,0.00,,,0.39,171,Wunderground v.1.15,2013-02-27 20:45:00,
2013-02-27 15:50:00,54.5,43.8,29.55,NW,305,2.0,6.0,67,0.00,,,0.39,262,Wunderground v.1.15,2013-02-27 20:50:00,
2013-02-27 15:55:00,54.4,43.3,29.55,NW,306,6.0,17.0,66,0.00,,,0.39,227,Wunderground v.1.15,2013-02-27 20:55:00,
2013-02-27 16:00:00,54.3,43.2,29.55,West,281,11.0,13.0,66,0.00,,,0.39,65,Wunderground v.1.15,2013-02-27 21:00:00,
2013-02-27 16:05:00,53.9,42.8,29.55,NW,321,8.0,26.0,66,0.00,,,0.39,62,Wunderground v.1.15,2013-02-27 21:05:00,
2013-02-27 16:10:00,53.4,42.7,29.55,NW,304,1.0,9.0,67,0.00,,,0.39,53,Wunderground v.1.15,2013-02-27 21:10:00,
2013-02-27 16:15:00,52.9,42.2,29.55,WNW,292,6.0,17.0,67,0.00,,,0.39,53,Wunderground v.1.15,2013-02-27 21:15:00,
2013-02-27 16:20:00,52.4,41.8,29.56,NNW,333,2.0,9.0,67,0.00,,,0.39,67,Wunderground v.1.15,2013-02-27 21:20:00,
2013-02-27 16:25:00,52.0,41.8,29.56,WNW,284,6.0,11.0,68,0.00,,,0.39,72,Wunderground v.1.15,2013-02-27 21:25:00,
2013-02-27 16:31:00,51.8,41.9,29.56,NW,317,4.0,10.0,69,0.00,,,0.39,70,Wunderground v.1.15,2013-02-27 21:31:00,
2013-02-27 16:36:00,51.5,41.7,29.56,NW,319,14.0,14.0,69,0.00,,,0.39,77,Wunderground v.1.15,2013-02-27 21:36:00,
2013-02-27 16:41:00,51.3,41.1,29.57,WNW,288,5.0,11.0,68,0.00,,,0.39,63,Wunderground v.1.15,2013-02-27 21:41:00,
2013-02-27 16:46:00,51.0,40.8,29.57,WNW,290,14.0,18.0,68,0.00,,,0.39,49,Wunderground v.1.15,2013-02-27 21:46:00,
2013-02-27 16:51:00,50.7,40.1,29.58,WNW,297,15.0,18.0,67,0.00,,,0.39,47,Wunderground v.1.15,2013-02-27 21:51:00,
2013-02-27 16:56:00,50.5,39.9,29.58,NW,325,11.0,18.0,67,0.00,,,0.39,40,Wunderground v.1.15,2013-02-27 21:56:00,
2013-02-27 17:01:00,50.4,39.9,29.58,West,280,8.0,14.0,67,0.00,,,0.39,26,Wunderground v.1.15,2013-02-27 22:01:00,
2013-02-27 17:06:00,50.3,40.1,29.58,NW,312,5.0,14.0,68,0.00,,,0.39,42,Wunderground v.1.15,2013-02-27 22:06:00,
2013-02-27 17:11:00,50.2,40.0,29.59,West,271,6.0,8.0,68,0.00,,,0.39,26,Wunderground v.1.15,2013-02-27 22:11:00,
2013-02-27 17:16:00,50.1,39.9,29.59,WNW,297,0.0,15.0,68,0.00,,,0.39,25,Wunderground v.1.15,2013-02-27 22:16:00,
2013-02-27 17:21:00,50.0,40.2,29.59,NW,309,2.0,7.0,69,0.00,,,0.39,21,Wunderground v.1.15,2013-02-27 22:21:00,
2013-02-27 17:26:00,49.8,40.0,29.59,WNW,286,0.0,12.0,69,0.00,,,0.39,12,Wunderground v.1.15,2013-02-27 22:26:00,
2013-02-27 17:31:00,49.7,39.9,29.59,WNW,288,4.0,4.0,69,0.00,,,0.39,11,Wunderground v.1.15,2013-02-27 22:31:00,
2013-02-27 17:36:00,49.5,39.7,29.60,WNW,295,0.0,6.0,69,0.00,,,0.39,7,Wunderground v.1.15,2013-02-27 22:36:00,
2013-02-27 17:41:00,49.3,39.6,29.60,NW,309,0.0,3.0,69,0.00,,,0.39,5,Wunderground v.1.15,2013-02-27 22:41:00,
2013-02-27 17:46:00,49.2,39.8,29.60,NW,309,5.0,9.0,70,0.00,,,0.39,0,Wunderground v.1.15,2013-02-27 22:46:00,
2013-02-27 17:51:00,49.0,39.6,29.61,NW,312,6.0,9.0,70,0.00,,,0.39,0,Wunderground v.1.15,2013-02-27 22:51:00,
2013-02-27 17:56:00,48.9,39.9,29.61,NW,309,8.0,9.0,71,0.00,,,0.39,0,Wunderground v.1.15,2013-02-27 22:56:00,
2013-02-27 18:01:00,48.8,39.8,29.61,NW,309,3.0,9.0,71,0.00,,,0.39,0,Wunderground v.1.15,2013-02-27 23:01:00,
2013-02-27 18:06:00,48.7,39.7,29.61,NW,314,3.0,9.0,71,0.00,,,0.39,0,Wunderground v.1.15,2013-02-27 23:06:00,
2013-02-27 18:11:00,48.5,39.5,29.61,WNW,294,0.0,3.0,71,0.00,,,0.39,0,Wunderground v.1.15,2013-02-27 23:11:00,
2013-02-27 18:16:00,48.4,39.8,29.61,NW,309,0.0,3.0,72,0.00,,,0.39,0,Wunderground v.1.15,2013-02-27 23:16:00,
2013-02-27 18:21:00,48.3,39.3,29.61,NW,310,1.0,2.0,71,0.00,,,0.39,0,Wunderground v.1.15,2013-02-27 23:21:00,
2013-02-27 18:26:00,48.2,39.6,29.61,NW,309,0.0,2.0,72,0.00,,,0.39,0,Wunderground v.1.15,2013-02-27 23:26:00,
2013-02-27 18:31:00,48.1,39.5,29.62,WNW,294,3.0,4.0,72,0.00,,,0.39,0,Wunderground v.1.15,2013-02-27 23:31:00,
2013-02-27 18:36:00,47.9,39.3,29.62,WNW,300,3.0,8.0,72,0.00,,,0.39,0,Wunderground v.1.15,2013-02-27 23:36:00,
2013-02-27 18:41:00,47.8,39.6,29.62,WNW,288,4.0,4.0,73,0.00,,,0.39,0,Wunderground v.1.15,2013-02-27 23:41:00,
2013-02-27 18:46:00,47.7,39.5,29.62,WNW,292,0.0,4.0,73,0.00,,,0.39,0,Wunderground v.1.15,2013-02-27 23:46:00,
2013-02-27 18:51:00,47.6,39.4,29.62,WNW,292,0.0,2.0,73,0.00,,,0.39,0,Wunderground v.1.15,2013-02-27 23:51:00,
2013-02-27 18:56:00,47.5,39.6,29.62,WNW,286,0.0,4.0,74,0.00,,,0.39,0,Wunderground v.1.15,2013-02-27 23:56:00,
2013-02-27 19:01:00,47.5,39.6,29.62,WNW,286,0.0,0.0,74,0.00,,,0.39,0,Wunderground v.1.15,2013-02-28 00:01:00,
2013-02-27 19:06:00,47.4,39.5,29.62,WNW,285,0.0,2.0,74,0.00,,,0.39,0,Wunderground v.1.15,2013-02-28 00:06:00,
2013-02-27 19:12:00,47.3,39.4,29.62,WNW,285,0.0,0.0,74,0.00,,,0.39,0,Wunderground v.1.15,2013-02-28 00:12:00,
2013-02-27 19:17:00,47.2,39.3,29.63,WNW,285,0.0,2.0,74,0.00,,,0.39,0,Wunderground v.1.15,2013-02-28 00:17:00,
2013-02-27 19:22:00,47.1,39.2,29.63,WNW,285,0.0,0.0,74,0.00,,,0.39,0,Wunderground v.1.15,2013-02-28 00:22:00,
2013-02-27 19:27:00,47.1,39.2,29.63,WNW,285,0.0,1.0,74,0.00,,,0.39,0,Wunderground v.1.15,2013-02-28 00:27:00,
2013-02-27 19:32:00,47.0,39.5,29.63,WNW,285,0.0,1.0,75,0.00,,,0.39,0,Wunderground v.1.15,2013-02-28 00:32:00,
2013-02-27 19:37:00,46.9,39.4,29.63,WNW,285,0.0,1.0,75,0.00,,,0.39,0,Wunderground v.1.15,2013-02-28 00:37:00,
2013-02-27 19:42:00,46.8,39.3,29.62,WNW,285,0.0,1.0,75,0.00,,,0.39,0,Wunderground v.1.15,2013-02-28 00:42:00,
2013-02-27 19:47:00,46.7,39.2,29.62,WNW,285,0.0,1.0,75,0.00,,,0.39,0,Wunderground v.1.15,2013-02-28 00:47:00,
2013-02-27 19:52:00,46.5,39.0,29.63,WNW,285,0.0,0.0,75,0.00,,,0.39,0,Wunderground v.1.15,2013-02-28 00:52:00,
2013-02-27 19:57:00,46.3,38.8,29.63,WNW,285,0.0,0.0,75,0.00,,,0.39,0,Wunderground v.1.15,2013-02-28 00:57:00,
2013-02-27 20:02:00,46.1,38.3,29.63,WNW,285,0.0,0.0,74,0.00,,,0.39,0,Wunderground v.1.15,2013-02-28 01:02:00,
2013-02-27 20:07:00,45.9,38.1,29.64,WNW,285,0.0,0.0,74,0.00,,,0.39,0,Wunderground v.1.15,2013-02-28 01:07:00,
2013-02-27 20:12:00,45.8,38.3,29.64,WNW,285,0.0,0.0,75,0.00,,,0.39,0,Wunderground v.1.15,2013-02-28 01:12:00,
2013-02-27 20:17:00,45.5,38.0,29.64,WNW,285,0.0,0.0,75,0.00,,,0.39,0,Wunderground v.1.15,2013-02-28 01:17:00,
2013-02-27 20:22:00,45.4,37.9,29.64,WNW,285,0.0,0.0,75,0.00,,,0.39,0,Wunderground v.1.15,2013-02-28 01:22:00,
2013-02-27 20:27:00,45.2,37.7,29.64,WNW,285,0.0,0.0,75,0.00,,,0.39,0,Wunderground v.1.15,2013-02-28 01:27:00,
2013-02-27 20:32:00,45.0,37.6,29.64,WNW,285,0.0,0.0,75,0.00,,,0.39,0,Wunderground v.1.15,2013-02-28 01:32:00,
2013-02-27 20:37:00,44.9,37.8,29.64,WNW,285,0.0,2.0,76,0.00,,,0.39,0,Wunderground v.1.15,2013-02-28 01:37:00,
2013-02-27 20:42:00,44.8,37.7,29.64,WNW,285,0.0,0.0,76,0.00,,,0.39,0,Wunderground v.1.15,2013-02-28 01:42:00,
2013-02-27 20:47:00,44.7,37.9,29.64,WNW,285,0.0,0.0,77,0.00,,,0.39,0,Wunderground v.1.15,2013-02-28 01:47:00,
2013-02-27 20:52:00,44.6,37.8,29.64,WNW,285,0.0,0.0,77,0.00,,,0.39,0,Wunderground v.1.15,2013-02-28 01:52:00,
2013-02-27 20:57:00,44.6,38.2,29.64,WNW,285,0.0,0.0,78,0.00,,,0.39,0,Wunderground v.1.15,2013-02-28 01:57:00,
2013-02-27 21:02:00,44.6,38.2,29.64,WNW,285,0.0,0.0,78,0.00,,,0.39,0,Wunderground v.1.15,2013-02-28 02:02:00,
2013-02-27 21:07:00,44.5,38.4,29.64,WNW,285,0.0,0.0,79,0.00,,,0.39,0,Wunderground v.1.15,2013-02-28 02:07:00,
2013-02-27 21:12:00,44.5,38.4,29.64,WNW,285,0.0,0.0,79,0.00,,,0.39,0,Wunderground v.1.15,2013-02-28 02:12:00,
2013-02-27 21:18:00,44.4,38.3,29.64,WNW,285,0.0,1.0,79,0.00,,,0.39,0,Wunderground v.1.15,2013-02-28 02:18:00,
2013-02-27 21:23:00,44.5,38.7,29.64,WNW,285,0.0,1.0,80,0.00,,,0.39,0,Wunderground v.1.15,2013-02-28 02:23:00,
2013-02-27 21:28:00,44.5,38.7,29.64,WNW,285,0.0,2.0,80,0.00,,,0.39,0,Wunderground v.1.15,2013-02-28 02:28:00,
2013-02-27 21:33:00,44.5,38.7,29.64,WNW,285,0.0,0.0,80,0.00,,,0.39,0,Wunderground v.1.15,2013-02-28 02:33:00,
2013-02-27 21:38:00,44.5,39.0,29.64,WNW,285,0.0,2.0,81,0.00,,,0.39,0,Wunderground v.1.15,2013-02-28 02:38:00,
2013-02-27 21:43:00,44.5,39.0,29.64,WNW,285,0.0,0.0,81,0.00,,,0.39,0,Wunderground v.1.15,2013-02-28 02:43:00,
2013-02-27 21:48:00,44.6,39.1,29.64,WNW,285,0.0,0.0,81,0.00,,,0.39,0,Wunderground v.1.15,2013-02-28 02:48:00,
2013-02-27 21:53:00,44.6,39.1,29.64,WNW,285,0.0,0.0,81,0.00,,,0.39,0,Wunderground v.1.15,2013-02-28 02:53:00,
2013-02-27 21:58:00,44.6,39.1,29.64,WNW,285,0.0,0.0,81,0.00,,,0.39,0,Wunderground v.1.15,2013-02-28 02:58:00,
2013-02-27 22:03:00,44.7,39.5,29.64,WNW,285,0.0,0.0,82,0.00,,,0.39,0,Wunderground v.1.15,2013-02-28 03:03:00,
2013-02-27 22:08:00,44.7,39.5,29.64,WNW,285,0.0,0.0,82,0.00,,,0.39,0,Wunderground v.1.15,2013-02-28 03:08:00,
2013-02-27 22:13:00,44.7,39.5,29.64,WNW,285,0.0,0.0,82,0.00,,,0.39,0,Wunderground v.1.15,2013-02-28 03:13:00,
2013-02-27 22:18:00,44.7,39.5,29.64,WNW,285,0.0,0.0,82,0.00,,,0.39,0,Wunderground v.1.15,2013-02-28 03:18:00,
2013-02-27 22:23:00,44.7,39.5,29.64,WNW,285,0.0,0.0,82,0.00,,,0.39,0,Wunderground v.1.15,2013-02-28 03:23:00,
2013-02-27 22:28:00,44.7,39.5,29.64,WNW,285,0.0,0.0,82,0.00,,,0.39,0,Wunderground v.1.15,2013-02-28 03:28:00,
2013-02-27 22:33:00,44.7,39.5,29.64,WNW,285,0.0,0.0,82,0.00,,,0.39,0,Wunderground v.1.15,2013-02-28 03:33:00,
2013-02-27 22:38:00,44.7,39.5,29.64,WNW,285,0.0,0.0,82,0.00,,,0.39,0,Wunderground v.1.15,2013-02-28 03:38:00,
2013-02-27 22:43:00,44.6,39.4,29.64,WNW,285,0.0,0.0,82,0.00,,,0.39,0,Wunderground v.1.15,2013-02-28 03:43:00,
2013-02-27 22:48:00,44.6,39.4,29.64,WNW,285,0.0,0.0,82,0.00,,,0.39,0,Wunderground v.1.15,2013-02-28 03:48:00,
2013-02-27 22:53:00,44.6,39.4,29.63,WNW,285,0.0,0.0,82,0.00,,,0.39,0,Wunderground v.1.15,2013-02-28 03:53:00,
2013-02-27 22:58:00,44.6,39.4,29.63,WNW,285,0.0,1.0,82,0.00,,,0.39,0,Wunderground v.1.15,2013-02-28 03:58:00,
2013-02-27 23:03:00,44.5,39.3,29.63,WNW,285,0.0,0.0,82,0.00,,,0.39,0,Wunderground v.1.15,2013-02-28 04:03:00,
2013-02-27 23:08:00,44.5,39.3,29.63,WNW,285,0.0,0.0,82,0.00,,,0.39,0,Wunderground v.1.15,2013-02-28 04:08:00,
2013-02-27 23:13:00,44.5,39.3,29.62,WNW,285,0.0,1.0,82,0.00,,,0.39,0,Wunderground v.1.15,2013-02-28 04:13:00,
2013-02-27 23:18:00,44.5,39.3,29.62,WNW,285,0.0,1.0,82,0.00,,,0.39,0,Wunderground v.1.15,2013-02-28 04:18:00,
2013-02-27 23:23:00,44.5,39.7,29.62,WNW,285,0.0,0.0,83,0.00,,,0.39,0,Wunderground v.1.15,2013-02-28 04:23:00,
2013-02-27 23:28:00,44.4,39.6,29.62,WNW,285,0.0,0.0,83,0.00,,,0.39,0,Wunderground v.1.15,2013-02-28 04:28:00,
2013-02-27 23:33:00,44.4,39.6,29.62,WNW,285,0.0,0.0,83,0.00,,,0.39,0,Wunderground v.1.15,2013-02-28 04:33:00,
2013-02-27 23:38:00,44.4,39.6,29.62,WNW,285,0.0,0.0,83,0.00,,,0.39,0,Wunderground v.1.15,2013-02-28 04:38:00,
2013-02-27 23:43:00,44.3,39.5,29.62,WNW,285,0.0,0.0,83,0.00,,,0.39,0,Wunderground v.1.15,2013-02-28 04:43:00,
2013-02-27 23:49:00,44.3,39.5,29.62,WNW,285,0.0,0.0,83,0.00,,,0.39,0,Wunderground v.1.15,2013-02-28 04:49:00,
2013-02-27 23:54:00,44.3,39.5,29.61,WNW,285,0.0,0.0,83,0.00,,,0.39,0,Wunderground v.1.15,2013-02-28 04:54:00,
2013-02-27 23:59:00,44.2,39.4,29.62,WNW,285,0.0,0.0,83,0.00,,,0.39,0,Wunderground v.1.15,2013-02-28 04:59:00,